Location: Unspecified
(49.2170°N, 0.0000°E)
Time: 08:15:46
(UTC+00:00)

Vanguard 3 - Pass Details

Date: 21 January 2021
Orbit: 508 x 3262 km, 33.4° (Epoch: 08 March)

Event Time Altitude Azimuth Distance (km) Brightness Sun altitude
Rises 07:47:28 0° 258° (WSW) 4,841 10.7 -0.4°
Reaches altitude 10° 07:50:31 10° 250° (WSW) 4,190 10.4 0.0°
Maximum altitude 08:01:16 38° 189° (S) 3,452 10.7 1.5°
Drops below altitude 10° 08:17:00 10° 131° (SE) 6,072 14.3 3.6°
Sets 08:22:34 0° 125° (SE) 7,209 15.1 4.4°
